FW8637 Weather Reports


time (UTC)temp
C
wind
direction
speed
KPH
gust
KPH
rain 1hr
cm
rain 24hr
cm
rain mn
cm
humidity
%
barometer
mb
20260506004448 19 286 0.0 0.0 0.00 0.00 0.00 59 1011.3
20260506003944 20 286 0.0 0.0 0.00 0.00 0.00 58 1011.5
20260506003441 20 286 0.0 0.0 0.00 0.00 0.00 58 1011.5
20260506002937 20 286 0.0 0.0 0.00 0.00 0.00 57 1011.5
20260506002433 20 285 0.0 0.0 0.00 0.00 0.00 56 1011.4
20260506001929 21 285 0.0 0.0 0.00 0.00 0.00 60 1011.5
20260506001426 21 285 0.0 0.0 0.00 0.00 0.00 54 1011.2
20260506000923 21 285 0.0 0.0 0.00 0.00 0.00 53 1011.3
20260506000423 21 288 0.0 1.6 0.00 0.00 0.00 56 1011.6
20260505235917 22 288 0.0 0.0 0.00 0.00 0.00 51 1011.6
20260505235415 22 288 0.0 0.0 0.00 0.00 0.00 48 1011.8
20260505234912 22 291 0.0 0.0 0.00 0.00 0.00 49 1011.8
20260505234410 22 292 0.0 0.0 0.00 0.00 0.00 50 1012.0
20260505233906 22 291 0.0 1.6 0.00 0.00 0.00 48 1012.1
20260505233404 22 305 0.0 0.0 0.00 0.00 0.00 48 1012.2
20260505232901 22 305 0.0 0.0 0.00 0.00 0.00 47 1011.9
20260505232359 22 319 0.0 1.6 0.00 0.00 0.00 47 1012.0
20260505231855 22 332 1.6 1.6 0.00 0.00 0.00 46 1011.9
20260505231353 23 301 0.0 0.0 0.00 0.00 0.00 48 1012.0
20260505230851 23 299 1.6 3.2 0.00 0.00 0.00 46 1011.7
20260505230348 23 282 0.0 0.0 0.00 0.00 0.00 46 1011.5
20260505225844 23 294 0.0 0.0 0.00 0.00 0.00 45 1011.6
20260505225342 23 324 0.0 0.0 0.00 0.00 0.00 44 1011.7
20260505224837 23 269 1.6 3.2 0.00 0.00 0.00 43 1011.5
20260505224335 24 267 0.0 0.0 0.00 0.00 0.00 45 1011.5
20260505223832 24 267 3.2 3.2 0.00 0.00 0.00 43 1011.6
20260505223329 24 286 0.0 0.0 0.00 0.00 0.00 44 1011.5
20260505222824 24 289 1.6 3.2 0.00 0.00 0.00 42 1011.5
20260505222321 24 286 4.8 8.0 0.00 0.00 0.00 44 1011.6
20260505221818 24 295 3.2 8.0 0.00 0.00 0.00 44 1011.6
20260505221315 24 282 4.8 4.8 0.00 0.00 0.00 49 1011.5
20260505220812 23 316 1.6 1.6 0.00 0.00 0.00 48 1011.6
20260505220309 24 286 0.0 0.0 0.00 0.00 0.00 51 1011.5
20260505215807 24 286 0.0 0.0 0.00 0.00 0.00 52 1011.7
20260505215305 24 286 0.0 0.0 0.00 0.00 0.00 51 1011.7
20260505214802 24 286 0.0 0.0 0.00 0.00 0.00 52 1011.7
20260505214259 24 293 0.0 0.0 0.00 0.00 0.00 54 1011.8
20260505213756 24 294 0.0 0.0 0.00 0.00 0.00 51 1011.6
20260505213254 24 294 0.0 0.0 0.00 0.00 0.00 51 1011.8
20260505212749 24 294 0.0 0.0 0.00 0.00 0.00 52 1011.8
20260505212247 24 294 0.0 0.0 0.00 0.00 0.00 49 1011.9
20260505211744 25 295 1.6 1.6 0.00 0.00 0.00 49 1011.7
20260505211241 25 278 1.6 3.2 0.00 0.00 0.00 51 1011.9
20260505210737 24 298 1.6 1.6 0.00 0.00 0.00 46 1011.7
20260505210234 24 299 0.0 0.0 0.00 0.00 0.00 48 1011.7
20260505205732 24 300 0.0 0.0 0.00 0.00 0.00 48 1011.7
20260505205230 24 269 3.2 4.8 0.00 0.00 0.00 48 1011.8
20260505204726 24 271 1.6 3.2 0.00 0.00 0.00 48 1011.9
20260505204224 24 271 1.6 1.6 0.00 0.00 0.00 48 1012.1
20260505203721 24 284 0.0 1.6 0.00 0.00 0.00 49 1011.9
20260505203218 24 267 0.0 0.0 0.00 0.00 0.00 49 1012.3
20260505202713 24 271 1.6 3.2 0.00 0.00 0.00 51 1012.4
20260505202210 25 271 1.6 3.2 0.00 0.00 0.00 51 1012.5
20260505201706 25 272 0.0 0.0 0.00 0.00 0.00 48 1012.6
20260505201204 25 276 4.8 4.8 0.00 0.00 0.00 49 1012.9
20260505200702 25 282 0.0 1.6 0.00 0.00 0.00 48 1013.0
20260505200159 25 282 1.6 3.2 0.00 0.00 0.00 49 1012.7
20260505195654 25 285 1.6 1.6 0.00 0.00 0.00 52 1013.0
20260505195152 25 270 1.6 4.8 0.00 0.00 0.00 47 1013.1
20260505194649 24 290 0.0 0.0 0.00 0.00 0.00 47 1013.0
20260505194145 23 290 0.0 1.6 0.00 0.00 0.00 47 1012.9
20260505193642 23 290 0.0 0.0 0.00 0.00 0.00 50 1013.2
20260505193139 23 290 0.0 0.0 0.00 0.00 0.00 50 1013.3
20260505192638 23 290 0.0 0.0 0.00 0.00 0.00 59 1013.4
20260505192135 23 290 0.0 0.0 0.00 0.00 0.00 61 1013.1
20260505191633 23 290 0.0 0.0 0.00 0.00 0.00 61 1012.9
20260505191131 23 290 0.0 0.0 0.00 0.00 0.00 58 1013.3
20260505190626 23 290 0.0 0.0 0.00 0.00 0.00 52 1013.4
20260505190121 23 290 0.0 0.0 0.00 0.00 0.00 54 1013.4
20260505185619 22 290 0.0 0.0 0.00 0.00 0.00 56 1013.8
20260505185115 22 290 0.0 0.0 0.00 0.00 0.00 53 1013.7
20260505184611 22 290 0.0 0.0 0.00 0.00 0.00 55 1013.9
20260505184108 22 290 0.0 0.0 0.00 0.00 0.00 55 1013.8
20260505183605 22 290 0.0 0.0 0.00 0.00 0.00 56 1013.9
20260505183103 22 290 0.0 0.0 0.00 0.00 0.00 57 1014.2
20260505182559 23 290 0.0 1.6 0.00 0.00 0.00 53 1014.2
20260505182056 23 290 0.0 0.0 0.00 0.00 0.00 55 1014.6
20260505181552 23 290 0.0 0.0 0.00 0.00 0.00 53 1014.6
20260505181050 23 290 0.0 0.0 0.00 0.00 0.00 55 1014.6
20260505180545 23 290 0.0 0.0 0.00 0.00 0.00 55 1014.6
20260505180044 23 290 0.0 0.0 0.00 0.00 0.00 58 1014.8
20260505175543 22 290 0.0 0.0 0.00 0.00 0.00 56 1014.9
20260505175041 22 290 0.0 0.0 0.00 0.00 0.00 54 1014.9
20260505174538 23 290 0.0 0.0 0.00 0.00 0.00 59 1015.1
20260505174033 22 290 0.0 0.0 0.00 0.00 0.00 58 1015.1
20260505173530 22 290 0.0 0.0 0.00 0.00 0.00 59 1015.2
20260505173027 22 290 0.0 0.0 0.00 0.00 0.00 57 1015.4
20260505172525 22 290 0.0 0.0 0.00 0.00 0.00 56 1015.4
20260505172021 22 290 0.0 0.0 0.00 0.00 0.00 59 1015.5
20260505171516 22 290 0.0 0.0 0.00 0.00 0.00 57 1015.6
20260505171014 22 290 0.0 0.0 0.00 0.00 0.00 58 1015.7
20260505170510 22 289 0.0 0.0 0.00 0.00 0.00 57 1015.8
20260505170007 22 290 0.0 0.0 0.00 0.00 0.00 59 1016.0
20260505165502 22 290 0.0 0.0 0.00 0.00 0.00 57 1016.1
20260505164958 22 290 0.0 0.0 0.00 0.00 0.00 60 1016.0
20260505164454 22 290 0.0 0.0 0.00 0.00 0.00 59 1016.1
20260505163952 22 290 0.0 0.0 0.00 0.00 0.00 60 1015.9
20260505163450 22 290 0.0 0.0 0.00 0.00 0.00 62 1016.1
20260505162950 21 290 0.0 0.0 0.00 0.00 0.00 62 1015.9
20260505162445 21 290 0.0 0.0 0.00 0.00 0.00 64 1016.0
20260505161942 22 290 0.0 0.0 0.00 0.00 0.00 65 1015.9
20260505161438 22 290 0.0 0.0 0.00 0.00 0.00 63 1015.8
20260505160936 21 290 0.0 0.0 0.00 0.00 0.00 67 1016.0
20260505160434 21 290 0.0 0.0 0.00 0.00 0.00 66 1016.1
20260505152910 20 290 0.0 0.0 0.00 0.00 0.00 65 1016.0
20260505152403 20 290 0.0 0.0 0.00 0.00 0.00 67 1016.1
20260505151901 20 291 0.0 0.0 0.00 0.00 0.00 67 1016.1
20260505151358 20 290 0.0 0.0 0.00 0.00 0.00 67 1016.1
20260505150855 19 290 0.0 0.0 0.00 0.00 0.00 66 1016.2
20260505150352 20 290 0.0 0.0 0.00 0.00 0.00 66 1016.1
20260505140317 17 291 0.0 0.0 0.00 0.00 0.00 75 1015.9
20260505130240 13 291 0.0 0.0 0.00 0.00 0.00 86 1016.1
20260505124731 13 291 0.0 0.0 0.00 0.00 0.00 89 1015.9
20260505124228 12 291 0.0 0.0 0.00 0.00 0.00 89 1016.0
20260505123723 12 291 0.0 0.0 0.00 0.00 0.00 90 1015.9
20260505123220 12 291 0.0 0.0 0.00 0.00 0.00 90 1015.8
20260505122717 12 291 0.0 0.0 0.00 0.00 0.00 90 1016.0
20260505122214 12 291 0.0 0.0 0.00 0.00 0.00 91 1015.9
20260505121710 11 291 0.0 0.0 0.00 0.00 0.00 91 1015.8
20260505121207 11 291 0.0 0.0 0.00 0.00 0.00 92 1015.8
20260505120703 11 291 0.0 0.0 0.00 0.00 0.00 92 1015.8
20260505120159 11 291 0.0 0.0 0.00 0.00 0.00 93 1015.7
20260505115653 11 291 0.0 0.0 0.00 0.00 0.00 93 1015.7
20260505115151 10 291 0.0 0.0 0.00 0.00 0.00 93 1015.6
20260505114648 10 291 0.0 0.0 0.00 0.00 0.00 93 1015.7
20260505114144 10 291 0.0 0.0 0.00 0.00 0.00 93 1015.3
20260505113641 10 291 0.0 0.0 0.00 0.00 0.00 94 1015.5
20260505113137 10 291 0.0 0.0 0.00 0.00 0.00 94 1015.4
20260505112633 10 291 0.0 0.0 0.00 0.00 0.00 94 1015.4
20260505112132 10 291 0.0 0.0 0.00 0.00 0.00 93 1015.2
20260505111631 10 291 0.0 0.0 0.00 0.00 0.00 93 1015.0
20260505111127 10 291 0.0 0.0 0.00 0.00 0.00 93 1014.9
20260505110623 10 291 0.0 0.0 0.00 0.00 0.00 93 1014.9
20260505110120 10 290 0.0 0.0 0.00 0.00 0.00 93 1014.9
20260505102051 10 290 0.0 0.0 0.00 0.00 0.00 91 1014.7
20260505101549 10 290 0.0 0.0 0.00 0.00 0.00 90 1014.8
20260505101045 10 291 0.0 0.0 0.00 0.00 0.00 90 1014.8
20260505100542 11 291 0.0 0.0 0.00 0.00 0.00 89 1014.6
20260505100039 11 291 0.0 0.0 0.00 0.00 0.00 89 1014.7
20260505095535 11 291 0.0 0.0 0.00 0.00 0.00 88 1014.6
20260505095032 11 291 0.0 0.0 0.00 0.00 0.00 88 1014.9
20260505094528 11 291 0.0 0.0 0.00 0.00 0.00 87 1014.7
20260505094024 12 291 0.0 0.0 0.00 0.00 0.00 84 1014.8
20260505093521 12 291 0.0 0.0 0.00 0.00 0.00 85 1014.7
20260505093018 11 291 0.0 0.0 0.00 0.00 0.00 86 1014.6
20260505092516 11 291 0.0 0.0 0.00 0.00 0.00 89 1014.7
20260505092014 11 291 0.0 0.0 0.00 0.00 0.00 88 1014.8
20260505091510 11 291 0.0 0.0 0.00 0.00 0.00 87 1014.7
20260505091009 11 291 0.0 0.0 0.00 0.00 0.00 87 1014.6
20260505090506 11 291 0.0 0.0 0.00 0.00 0.00 86 1014.6
20260505090004 11 291 0.0 0.0 0.00 0.00 0.00 86 1014.6
20260505085502 11 291 0.0 0.0 0.00 0.00 0.00 86 1014.5
20260505085000 12 291 0.0 0.0 0.00 0.00 0.00 86 1014.4
20260505084458 12 291 0.0 0.0 0.00 0.00 0.00 86 1014.4
20260505083955 12 291 0.0 0.0 0.00 0.00 0.00 86 1014.3
20260505083452 12 291 0.0 0.0 0.00 0.00 0.00 86 1014.5
20260505082949 12 291 0.0 0.0 0.00 0.00 0.00 87 1014.3
20260505082444 12 291 0.0 0.0 0.00 0.00 0.00 86 1014.5
20260505081941 12 291 0.0 0.0 0.00 0.00 0.00 86 1014.6
20260505081438 12 291 0.0 0.0 0.00 0.00 0.00 86 1014.7
20260505080934 12 291 0.0 0.0 0.00 0.00 0.00 85 1014.4
20260505080431 12 291 0.0 0.0 0.00 0.00 0.00 86 1014.4
20260505075926 12 291 0.0 0.0 0.00 0.00 0.00 86 1014.3
20260505075424 12 291 0.0 0.0 0.00 0.00 0.00 86 1014.3
20260505074921 12 291 0.0 0.0 0.00 0.00 0.00 86 1014.3
20260505074418 12 291 0.0 0.0 0.00 0.00 0.00 86 1014.4
20260505073915 12 291 0.0 0.0 0.00 0.00 0.00 86 1014.2
20260505073413 12 291 0.0 0.0 0.00 0.00 0.00 85 1014.2
20260505072910 12 291 0.0 0.0 0.00 0.00 0.00 84 1014.4
20260505072406 12 291 0.0 0.0 0.00 0.00 0.00 84 1014.2
20260505071902 12 291 0.0 0.0 0.00 0.00 0.00 83 1014.5
20260505071358 12 291 0.0 0.0 0.00 0.00 0.00 83 1014.4
20260505070857 12 291 0.0 0.0 0.00 0.00 0.00 83 1014.4
20260505070353 12 291 0.0 0.0 0.00 0.00 0.00 82 1014.6
20260505065848 13 291 0.0 0.0 0.00 0.00 0.00 81 1014.4
20260505065345 13 291 0.0 0.0 0.00 0.00 0.00 80 1014.3
20260505064842 13 291 0.0 0.0 0.00 0.00 0.00 81 1014.4
20260505064339 13 291 0.0 0.0 0.00 0.00 0.00 80 1014.5
20260505063837 13 291 0.0 0.0 0.00 0.00 0.00 79 1014.6
20260505063333 14 291 0.0 0.0 0.00 0.00 0.00 79 1014.6
20260505062830 14 291 0.0 0.0 0.00 0.00 0.00 77 1014.4
20260505062327 14 291 0.0 0.0 0.00 0.00 0.00 75 1014.5
20260505061824 14 291 0.0 0.0 0.00 0.00 0.00 75 1014.5
20260505061322 14 291 0.0 0.0 0.00 0.00 0.00 76 1014.4
20260505060819 15 291 0.0 0.0 0.00 0.00 0.00 75 1014.6
20260505060316 15 291 0.0 0.0 0.00 0.00 0.00 74 1014.5
20260505055812 15 291 0.0 0.0 0.00 0.00 0.00 74 1014.4
20260505055308 15 291 0.0 0.0 0.00 0.00 0.00 74 1014.6
20260505054806 15 291 0.0 0.0 0.00 0.00 0.00 74 1014.5
20260505054303 15 291 0.0 0.0 0.00 0.00 0.00 74 1014.7
20260505053801 15 291 0.0 0.0 0.00 0.00 0.00 74 1014.3
20260505053258 15 291 0.0 0.0 0.00 0.00 0.00 74 1014.5
20260505052754 15 291 0.0 0.0 0.00 0.00 0.00 73 1014.4
20260505052251 15 291 0.0 0.0 0.00 0.00 0.00 74 1014.3
20260505051748 15 291 0.0 0.0 0.00 0.00 0.00 74 1014.4
20260505051246 15 291 0.0 0.0 0.00 0.00 0.00 73 1014.3
20260505050744 15 291 0.0 0.0 0.00 0.00 0.00 75 1014.3
20260505050242 15 291 0.0 0.0 0.00 0.00 0.00 75 1014.2
20260505041712 15 291 0.0 0.0 0.00 0.00 0.00 72 1014.0
20260505041209 15 291 0.0 0.0 0.00 0.00 0.00 72 1014.2
20260505040706 15 291 0.0 0.0 0.00 0.00 0.00 71 1014.2
20260505040204 15 291 0.0 0.0 0.00 0.00 0.00 71 1013.9
20260505035700 15 291 0.0 0.0 0.00 0.00 0.00 70 1014.1
20260505035156 15 291 0.0 0.0 0.00 0.00 0.00 70 1014.3
20260505034653 16 291 0.0 0.0 0.00 0.00 0.00 70 1014.1
20260505034150 16 291 0.0 0.0 0.00 0.00 0.00 69 1014.2
20260505033646 16 291 0.0 0.0 0.00 0.00 0.00 69 1014.1
20260505033145 16 291 0.0 0.0 0.00 0.00 0.00 68 1014.0
20260505032643 16 291 0.0 0.0 0.00 0.00 0.00 67 1014.0
20260505032138 16 291 0.0 0.0 0.00 0.00 0.00 67 1014.1
20260505031636 16 291 0.0 0.0 0.00 0.00 0.00 67 1014.0
20260505031132 17 291 0.0 0.0 0.00 0.00 0.00 66 1014.0
20260505030629 17 291 0.0 0.0 0.00 0.00 0.00 66 1014.0
20260505030125 17 291 0.0 0.0 0.00 0.00 0.00 67 1013.9
20260505025621 17 291 0.0 0.0 0.00 0.00 0.00 68 1014.0
20260505025120 17 291 0.0 0.0 0.00 0.00 0.00 67 1014.2
20260505024617 17 291 0.0 0.0 0.00 0.00 0.00 67 1014.0
20260505024114 17 291 0.0 0.0 0.00 0.00 0.00 68 1014.1
20260505023611 17 291 0.0 0.0 0.00 0.00 0.00 67 1014.1
20260505023109 17 291 0.0 0.0 0.00 0.00 0.00 66 1014.1
20260505022606 17 291 0.0 0.0 0.00 0.00 0.00 67 1014.3
20260505022103 17 291 0.0 0.0 0.00 0.00 0.00 70 1014.1
20260505021559 17 291 0.0 0.0 0.00 0.00 0.00 68 1014.1
20260505021056 17 291 0.0 0.0 0.00 0.00 0.00 67 1014.3
20260505020556 17 291 0.0 0.0 0.00 0.00 0.00 72 1014.1
20260505020053 17 291 0.0 0.0 0.00 0.00 0.00 71 1014.2
20260505015550 17 291 0.0 0.0 0.00 0.00 0.00 69 1014.3
20260505015047 17 291 0.0 0.0 0.00 0.00 0.00 68 1014.2
20260505014544 17 291 0.0 0.0 0.00 0.00 0.00 70 1014.1
20260505014041 17 291 0.0 0.0 0.00 0.00 0.00 70 1014.1
20260505013538 18 291 0.0 0.0 0.00 0.00 0.00 70 1014.1
20260505013036 18 291 0.0 0.0 0.00 0.00 0.00 72 1014.0
20260505012534 18 291 0.0 0.0 0.00 0.00 0.00 70 1013.9
20260505012030 18 291 0.0 0.0 0.00 0.00 0.00 71 1014.0
20260505011526 18 291 0.0 0.0 0.00 0.00 0.00 70 1013.9
20260505011023 18 291 0.0 0.0 0.00 0.00 0.00 69 1013.8
20260505010518 18 291 0.0 0.0 0.00 0.00 0.00 69 1013.8
20260505010015 18 291 0.0 0.0 0.00 0.00 0.00 70 1013.7
20260505005512 19 291 0.0 0.0 0.00 0.00 0.00 68 1013.9
20260505005009 19 291 0.0 0.0 0.00 0.00 0.00 67 1013.7